Temperature
19 17 17 17 17 18 18 17 17 17 18 17 16 16 16 16 16 15 15 16 16 17 17 17 16 16 16 16 16 16 16 16 15 15 15 15 15 15 15 14 14 14 14 14
17 17 18 18 18 18 17 17 17 17 18 17 16 16 16 15 15 16 16 16 16 17 17 16 16 16 16 16 16 16 16 16 15 15 15 15 15 15 14 14 14 14 14 14
18 18 19 19 18 18 18 17 17 17 17 17 17 16 16 16 16 16 16 16 16 17 17 17 16 16 16 16 16 16 16 16 15 15 15 15 15 14 14 14 14 14 14 14
17 18 19 18 18 18 17 18 18 17 16 15 16 15 15 15 15 15 15 16 16 16 17 17 17 16 16 16 16 16 16 16 15 15 15 15 15 14 14 14 14 14 14 14
18 18 18 18 18 18 18 18 18 17 16 15 15 15 15 14 15 15 15 16 16 17 17 17 17 17 16 16 16 16 16 15 15 15 15 15 14 14 14 14 14 14 14 14
18 18 19 19 19 18 18 17 16 14 14 15 16 15 15 14 15 15 15 16 16 16 17 17 17 16 16 16 16 16 15 15 15 15 15 14 14 14 14 14 14 14 14 14
18 18 18 19 18 18 17 16 15 15 14 15 15 15 14 15 15 15 15 16 16 17 16 16 16 16 16 16 16 15 15 15 15 15 14 14 14 14 14 14 13 13 13 13
17 17 18 18 18 17 17 16 15 16 15 14 15 14 15 15 15 16 16 16 16 16 16 16 16 16 16 16 16 15 15 15 15 14 14 14 14 14 14 13 13 13 13 13
16 17 18 18 18 17 16 15 15 14 14 14 14 14 15 15 15 14 15 15 16 16 16 16 16 16 16 16 16 15 15 15 15 14 14 14 14 14 13 13 13 13 13 13
16 16 17 17 18 17 16 14 13 14 14 14 14 14 14 15 14 14 14 14 15 15 16 16 16 16 16 16 15 15 15 15 14 14 14 14 14 13 13 13 13 13 13 13
16 16 16 17 17 17 16 15 13 12 13 13 14 14 15 14 14 14 13 14 15 15 15 15 15 15 15 15 15 15 15 14 14 14 14 14 13 13 13 13 13 13 12 12
14 13 14 16 16 17 16 15 13 14 14 12 13 14 15 14 14 14 14 14 14 15 15 15 15 15 15 15 15 14 14 14 14 14 14 13 13 13 13 13 12 12 12 12
14 13 14 15 15 16 16 15 14 13 12 11 12 14 14 13 13 14 14 14 14 14 14 14 14 14 14 14 14 14 14 14 14 13 13 13 13 13 12 12 12 12 12 11
14 13 14 15 15 15 15 15 14 13 12 12 12 13 14 13 13 13 13 13 14 14 14 14 13 13 13 13 13 13 13 13 13 13 13 12 12 12 12 12 11 11 11 11
13 13 14 14 14 14 15 14 14 14 13 13 13 13 13 13 12 13 13 13 13 13 13 13 13 13 13 13 13 13 13 13 12 12 12 12 12 12 11 11 11 11 11 10
12 13 13 14 14 14 14 14 14 14 13 13 13 13 13 13 13 12 12 13 12 13 13 13 13 12 12 12 12 12 12 12 12 12 12 11 11 11 11 11 10 10 10 10
11 12 12 12 13 14 13 14 14 13 13 13 13 13 12 12 12 12 12 13 13 12 12 12 12 12 12 12 12 12 12 12 11 11 11 11 11 11 10 10 10 10 10 9
11 11 10 11 13 14 13 13 13 13 13 12 12 12 12 12 12 13 13 13 12 12 12 12 12 12 12 12 12 11 11 11 11 11 11 10 10 10 10 10 9 9 9 9
10 10 10 10 11 12 13 13 13 13 12 12 12 12 11 12 12 12 12 12 13 12 12 12 12 12 11 11 11 11 11 11 10 10 10 10 10 10 9 9 9 8 8 8
9 9 10 10 12 12 13 13 13 13 12 12 11 11 11 11 10 10 12 12 12 12 12 12 11 11 11 11 11 10 10 10 10 10 10 9 9 9 9 9 8 8 8 8
10 9 9 10 11 11 11 12 13 12 12 12 12 11 11 10 11 12 12 12 11 11 11 11 11 11 11 10 10 10 10 10 10 9 9 9 9 9 8 8 8 8 7 7
10 9 9 9 10 11 11 11 11 11 12 12 12 12 11 11 11 11 11 11 11 11 11 11 11 11 10 10 10 10 10 9 9 9 9 9 8 8 8 8 8 7 7 7
9 9 9 9 10 10 11 11 12 12 12 12 12 12 12 11 11 11 11 11 11 10 10 10 10 10 10 9 9 9 9 9 9 9 8 8 8 8 8 7 7 7 7 6
8 8 8 8 9 10 10 11 11 11 11 12 12 12 11 11 11 10 10 10 10 10 10 10 9 9 9 9 9 9 9 9 9 8 8 8 8 7 7 7 7 6 6 6
8 8 8 8 8 9 10 11 11 11 11 11 11 11 11 11 10 10 10 10 10 10 9 9 9 9 9 9 9 8 8 8 8 8 8 7 7 7 7 7 6 6 6 6
7 7 8 9 9 9 10 11 11 10 10 10 10 10 10 10 10 10 10 9 9 9 9 9 9 9 9 8 8 8 8 8 8 8 7 7 7 7 6 6 6 6 5 5
Wind_Speed
3 4 2 6 7 5 3 3 2 4 2 3 4 5 6 4 5 6 6 6 6 6 4 2 3 3 3 3 3 3 3 3 3 2 2 2 1 1 2 2 2 2 2 2
4 2 5 3 4 4 3 2 2 2 1 3 3 5 5 4 6 7 8 8 7 5 3 3 4 3 3 4 3 3 3 3 2 2 1 1 1 1 1 1 2 2 2 2
5 4 2 4 3 3 3 5 5 3 1 2 1 4 4 3 3 4 5 6 6 7 7 5 5 5 4 4 4 4 3 3 2 2 2 3 3 2 2 2 2 2 2 2
3 3 2 3 3 5 5 5 5 4 2 2 1 3 6 3 3 5 6 6 7 7 6 6 6 6 5 5 4 4 3 3 3 3 3 3 2 1 1 1 0 1 1 1
4 3 3 4 5 6 5 2 3 2 3 0 1 2 7 2 4 6 7 8 8 7 7 7 7 7 6 5 4 4 3 2 2 3 3 3 2 1 0 0 1 1 1 1
4 2 4 5 2 3 4 5 5 4 3 1 3 4 6 4 6 5 6 7 8 7 7 6 5 4 4 3 3 3 3 2 2 3 3 3 3 1 1 0 0 0 1 1
3 3 2 2 2 2 4 5 3 3 2 4 2 3 7 6 6 6 7 7 7 7 6 5 4 4 4 4 4 4 4 3 2 3 3 3 3 3 3 2 2 1 0 1
2 5 3 2 5 5 4 7 6 4 4 4 2 5 6 4 4 3 4 5 5 6 6 6 6 6 5 5 5 5 4 3 3 3 3 2 2 2 2 2 2 2 2 2
5 5 3 2 3 7 5 4 5 5 2 1 4 6 6 2 2 1 2 3 5 5 6 6 5 5 5 5 5 5 5 3 3 3 3 2 2 2 2 2 2 1 1 1
5 3 4 2 3 2 5 8 5 4 3 3 5 4 4 4 3 2 2 4 4 4 4 4 4 4 4 4 3 3 4 4 3 3 3 2 2 2 1 1 1 1 1 0
3 3 3 1 3 4 3 4 5 4 4 5 3 6 4 6 5 5 5 4 5 5 5 5 4 4 3 3 3 3 3 3 2 2 2 2 1 1 1 1 1 1 0 0
2 4 2 5 4 3 4 6 7 4 4 4 4 6 4 3 3 4 4 3 3 5 5 4 4 4 3 3 2 2 3 3 2 2 2 2 1 1 1 1 1 1 1 0
3 4 1 5 4 2 1 3 4 5 4 5 4 6 4 3 2 1 2 3 4 4 4 4 4 3 3 2 2 2 2 2 2 3 3 2 2 2 1 1 0 1 1 1
4 3 5 7 6 3 2 2 4 5 4 5 6 6 5 4 2 1 1 3 4 4 4 4 3 2 2 2 2 2 2 2 2 3 2 2 1 1 1 1 1 1 1 1
4 2 3 4 3 2 2 3 3 5 7 7 6 6 6 4 3 2 2 3 4 3 3 4 3 2 1 1 1 2 2 2 2 3 2 1 1 1 1 2 1 1 1 1
3 2 0 3 2 1 1 3 3 5 4 4 3 5 4 2 0 0 2 4 4 4 4 3 3 2 3 3 2 2 2 1 2 2 2 1 1 1 2 1 1 1 1 1
2 3 2 3 4 2 3 4 4 3 2 5 5 6 2 1 2 3 4 5 6 5 4 4 4 3 3 3 4 3 2 2 2 2 1 1 1 1 1 1 1 1 1 1
4 4 3 1 2 3 5 1 2 3 2 2 2 2 2 3 3 2 2 4 4 4 4 4 3 3 2 2 3 3 3 3 3 2 2 2 2 1 1 1 1 1 1 1
4 5 4 3 2 5 5 2 1 2 3 1 2 2 2 2 3 3 1 1 3 4 4 4 4 3 2 2 3 3 3 2 2 2 2 2 2 2 1 1 2 1 1 1
4 4 5 3 2 5 4 3 2 2 2 3 1 2 0 2 2 4 3 1 1 1 1 2 2 2 2 2 3 4 3 3 3 3 3 2 2 2 2 2 2 1 1 1
3 3 3 3 4 5 4 4 2 2 5 3 1 2 3 3 4 4 1 1 1 0 0 2 3 3 2 3 3 3 3 3 3 2 2 2 2 2 2 1 1 1 1 1
4 3 3 4 3 5 3 3 3 4 3 1 1 2 3 3 1 1 0 0 0 0 1 2 3 2 1 2 4 3 3 2 1 2 2 2 1 1 1 1 0 0 1 1
3 4 4 6 5 3 1 2 2 1 1 2 2 2 1 1 2 1 1 1 1 1 0 1 2 2 1 2 4 4 3 2 2 2 2 2 1 1 1 2 1 1 0 1
2 1 2 2 4 3 2 2 2 2 2 3 2 1 1 1 1 1 1 1 1 1 1 1 2 2 1 1 3 3 2 2 3 2 2 2 2 1 0 1 1 1 2 1
3 2 1 3 4 4 3 2 2 3 3 2 2 1 2 1 1 2 1 2 1 1 1 1 2 2 2 2 2 1 2 3 3 2 2 1 1 1 1 0 1 2 2 2
4 5 5 5 5 4 5 4 2 2 3 3 3 3 2 1 2 2 2 2 1 1 1 1 1 2 1 1 1 1 2 3 3 2 1 1 1 1 1 0 1 3 2 3
Wind_Direction
51 84 198 217 196 179 162 170 222 252 226 158 202 233 248 213 197 201 205 204 206 218 225 193 164 148 131 125 126 132 125 112 107 92 97 101 77 33 36 41 35 40 76 97
47 258 232 190 163 157 173 186 236 282 224 168 214 261 262 216 209 207 206 206 206 205 191 176 162 155 160 161 160 147 149 146 144 131 132 136 132 92 53 26 25 42 62 79
186 237 179 150 156 169 212 197 207 213 27 40 77 309 276 249 219 216 210 203 201 194 190 188 181 183 179 183 185 176 177 159 148 121 100 78 64 50 41 22 6 9 44 58
224 247 170 167 204 181 231 223 194 180 143 281 140 278 282 255 250 226 219 208 207 203 191 188 189 189 196 202 191 175 169 156 150 135 129 127 124 150 223 225 273 342 20 41
235 200 179 208 223 186 207 165 145 154 157 104 12 198 285 291 256 244 228 216 210 203 191 190 193 195 198 195 181 173 157 157 159 153 153 147 141 183 208 57 56 9 7 24
240 229 193 205 196 168 141 82 64 54 80 259 231 190 274 243 233 243 226 213 205 199 191 188 186 182 187 178 165 157 154 165 167 162 161 161 166 167 130 98 150 332 346 359
316 303 264 158 112 53 99 97 32 351 1 252 235 201 250 253 240 226 218 210 198 186 180 179 177 181 181 176 174 165 164 179 182 172 173 175 179 181 192 206 205 218 287 312
197 280 249 191 182 182 168 148 163 206 225 275 290 235 256 272 276 240 202 190 178 183 182 184 186 186 182 181 177 172 175 186 189 188 197 185 177 187 210 211 201 208 225 239
181 249 286 230 196 151 148 170 168 139 154 252 277 286 302 323 3 67 148 154 176 187 185 183 179 178 175 173 176 179 179 181 190 197 196 179 172 188 212 222 200 212 242 240
160 233 283 283 83 45 150 145 111 131 165 249 287 280 264 271 252 226 187 185 188 176 166 161 162 167 167 166 160 152 165 183 192 186 185 182 183 186 191 168 191 215 253 262
133 166 298 6 190 190 118 118 121 129 155 167 245 270 246 238 223 206 207 197 180 170 166 157 157 156 147 133 130 141 156 158 164 176 173 163 175 160 141 149 184 183 166 162
121 128 242 263 265 209 172 170 155 164 209 180 186 265 302 262 225 195 193 180 161 159 153 146 135 123 120 126 134 151 154 152 167 161 140 140 145 126 121 140 173 150 154 176
127 111 52 339 340 359 115 157 160 140 130 162 182 259 337 12 38 122 162 158 144 138 133 121 113 119 132 137 147 150 145 153 138 123 119 115 124 130 142 158 112 104 109 81
114 118 176 206 226 223 249 200 162 149 173 202 217 244 309 328 332 317 181 160 146 136 131 123 121 124 130 128 131 126 121 125 119 121 126 135 166 173 167 136 106 95 104 108
93 143 227 248 255 210 220 242 198 194 198 198 221 220 252 260 244 236 191 155 139 137 136 138 151 157 141 122 118 117 117 119 125 124 128 169 173 140 127 109 104 101 86 70
75 134 106 304 311 263 254 273 233 222 209 205 217 254 263 272 44 106 175 165 169 176 175 173 167 172 189 191 177 158 155 157 135 135 155 163 132 124 126 135 132 104 84 63
112 128 120 270 305 7 282 262 220 204 190 181 213 243 265 307 272 237 214 194 192 192 187 184 187 198 211 201 180 179 184 158 142 149 162 169 163 153 153 152 121 124 147 109
149 134 138 188 41 238 248 291 178 176 215 199 214 255 219 230 266 267 214 195 205 200 193 192 198 201 209 194 178 167 157 163 164 165 173 173 172 167 153 142 140 171 206 195
159 142 127 133 208 277 293 287 168 191 268 273 227 280 337 16 20 346 333 183 204 202 195 195 196 192 178 180 172 155 159 165 168 185 193 191 177 167 158 164 190 202 199 212
74 98 118 134 182 238 263 290 269 133 283 303 216 235 253 64 4 282 300 310 261 239 183 170 162 148 162 189 161 155 169 174 201 211 206 192 181 179 186 201 200 200 194 216
74 73 133 166 217 259 279 305 68 135 260 295 215 209 179 194 227 259 280 306 231 125 232 156 152 163 183 177 153 163 179 201 219 203 172 165 177 188 181 174 170 167 166 155
170 164 182 160 195 254 301 97 152 231 275 256 213 198 202 236 277 312 320 336 265 97 98 154 158 175 167 161 156 171 211 231 182 151 150 166 177 180 150 136 149 163 150 155
193 193 193 192 210 242 252 202 232 241 271 279 249 265 201 243 262 280 299 300 297 294 187 163 162 162 145 172 174 193 228 199 153 147 160 173 167 174 171 168 181 211 203 208
262 129 153 253 267 280 281 291 331 338 302 293 270 241 194 237 249 274 291 298 310 313 237 168 154 163 181 206 210 210 208 163 148 159 176 176 160 168 203 208 205 210 223 237
229 166 177 255 278 309 300 295 309 337 347 352 342 289 242 205 251 258 262 272 270 281 240 166 168 182 205 200 208 195 155 144 145 162 177 173 168 180 193 245 263 248 244 240
199 182 190 233 234 227 265 274 282 304 304 308 320 315 295 220 225 241 240 256 263 225 183 182 194 204 225 196 190 183 166 155 149 154 171 174 168 181 184 177 356 355 341 334
Height
1496 1501 1506 1505 1504 1505 1508 1512 1515 1512 1507 1510 1513 1513 1510 1509 1510 1511 1512 1513 1514 1516 1518 1520 1521 1522 1524 1525 1526 1526 1527 1528 1528 1529 1529 1529 1530 1530 1530 1531 1531 1531 1531 1531
1501 1504 1500 1499 1501 1504 1508 1513 1514 1511 1507 1510 1513 1513 1508 1508 1508 1508 1509 1511 1512 1515 1517 1518 1520 1521 1523 1524 1525 1526 1526 1527 1528 1528 1529 1529 1529 1530 1530 1530 1530 1531 1531 1531
1502 1500 1496 1498 1502 1505 1508 1511 1511 1512 1510 1510 1513 1515 1510 1506 1506 1507 1508 1509 1510 1512 1514 1516 1518 1520 1521 1522 1524 1525 1526 1527 1527 1528 1528 1529 1529 1529 1529 1529 1529 1530 1530 1530
1499 1496 1496 1499 1502 1503 1509 1503 1505 1508 1515 1520 1516 1527 1512 1507 1506 1505 1505 1506 1508 1510 1512 1514 1516 1518 1519 1521 1523 1524 1525 1526 1526 1527 1527 1527 1527 1528 1528 1528 1528 1529 1529 1529
1498 1495 1496 1499 1498 1499 1502 1500 1504 1508 1514 1521 1519 1525 1518 1508 1507 1504 1502 1503 1505 1507 1510 1512 1514 1516 1518 1520 1521 1523 1524 1525 1525 1526 1526 1527 1527 1527 1527 1528 1528 1528 1528 1528
1494 1492 1493 1494 1494 1496 1498 1504 1509 1515 1520 1527 1520 1524 1521 1510 1504 1500 1499 1500 1502 1505 1507 1510 1513 1515 1516 1518 1520 1521 1522 1523 1524 1525 1525 1525 1526 1526 1526 1526 1527 1527 1527 1527
1497 1494 1491 1491 1496 1498 1500 1513 1527 1528 1533 1529 1518 1521 1516 1501 1497 1496 1496 1497 1499 1502 1505 1508 1510 1512 1514 1516 1518 1519 1521 1521 1522 1523 1523 1524 1524 1525 1525 1525 1525 1525 1525 1525
1505 1505 1493 1491 1494 1499 1501 1509 1526 1531 1533 1529 1519 1520 1508 1497 1494 1493 1494 1495 1498 1501 1503 1505 1508 1510 1512 1514 1515 1517 1518 1519 1520 1521 1522 1522 1523 1523 1523 1524 1524 1524 1524 1524
1504 1503 1491 1489 1489 1493 1502 1508 1509 1522 1525 1529 1524 1514 1503 1495 1494 1493 1494 1495 1497 1499 1501 1503 1505 1508 1510 1511 1513 1515 1516 1517 1518 1519 1520 1521 1521 1521 1522 1522 1522 1522 1522 1522
1496 1502 1493 1490 1490 1492 1495 1502 1515 1521 1528 1532 1524 1518 1512 1499 1496 1495 1494 1494 1495 1497 1499 1501 1503 1506 1507 1509 1511 1513 1514 1515 1516 1517 1518 1519 1519 1520 1520 1520 1521 1521 1521 1520
1493 1501 1498 1493 1494 1496 1499 1504 1511 1519 1521 1529 1531 1520 1499 1496 1494 1494 1493 1493 1494 1496 1497 1499 1502 1504 1506 1508 1509 1511 1512 1513 1514 1515 1516 1516 1517 1518 1518 1518 1518 1519 1519 1519
1494 1501 1505 1498 1491 1490 1492 1497 1507 1515 1519 1523 1526 1518 1493 1492 1491 1491 1492 1493 1494 1495 1496 1499 1501 1503 1505 1506 1507 1508 1510 1511 1512 1513 1514 1514 1515 1515 1516 1516 1516 1516 1516 1516
1493 1501 1509 1506 1502 1495 1494 1496 1500 1507 1515 1522 1523 1513 1493 1492 1491 1491 1492 1492 1493 1494 1496 1498 1500 1501 1503 1504 1505 1506 1507 1509 1510 1511 1512 1512 1512 1513 1513 1513 1513 1514 1514 1514
1490 1500 1506 1508 1503 1497 1497 1496 1499 1504 1513 1516 1513 1505 1497 1494 1493 1492 1492 1492 1493 1494 1495 1497 1499 1500 1501 1503 1504 1504 1506 1507 1508 1509 1509 1510 1510 1510 1510 1510 1511 1511 1511 1511
1491 1500 1499 1498 1495 1495 1496 1496 1497 1499 1501 1506 1502 1501 1496 1494 1492 1491 1491 1492 1492 1493 1495 1496 1498 1499 1500 1501 1502 1503 1504 1505 1506 1506 1507 1507 1507 1508 1508 1508 1508 1508 1508 1508
1494 1498 1499 1498 1495 1495 1496 1495 1495 1495 1496 1498 1498 1497 1492 1491 1491 1491 1490 1491 1491 1492 1493 1495 1496 1497 1498 1499 1500 1501 1501 1502 1503 1504 1504 1505 1505 1505 1505 1505 1505 1505 1505 1505
1496 1499 1503 1505 1499 1495 1500 1494 1492 1493 1492 1493 1496 1494 1490 1491 1490 1489 1489 1489 1489 1491 1492 1493 1494 1495 1496 1497 1497 1498 1499 1500 1500 1501 1502 1502 1502 1502 1502 1502 1502 1502 1502 1502
1496 1500 1506 1507 1503 1505 1497 1488 1488 1490 1490 1490 1489 1489 1489 1488 1488 1488 1487 1488 1488 1489 1490 1491 1492 1493 1494 1494 1495 1496 1497 1498 1498 1498 1499 1499 1499 1499 1499 1499 1499 1499 1499 1499
1491 1497 1505 1510 1508 1503 1494 1488 1488 1490 1490 1488 1488 1487 1487 1487 1486 1486 1487 1487 1487 1488 1488 1489 1490 1491 1492 1492 1492 1493 1494 1495 1495 1495 1496 1496 1496 1496 1496 1496 1496 1496 1496 1496
1493 1495 1504 1508 1505 1504 1494 1487 1485 1488 1492 1487 1486 1486 1487 1487 1491 1488 1486 1486 1486 1486 1486 1487 1488 1488 1489 1490 1490 1491 1491 1491 1492 1492 1493 1493 1493 1493 1493 1493 1493 1493 1493 1493
1498 1501 1504 1506 1505 1499 1490 1486 1485 1496 1494 1485 1484 1484 1485 1486 1487 1485 1484 1484 1484 1484 1484 1485 1485 1486 1486 1487 1487 1488 1488 1489 1489 1490 1490 1491 1491 1491 1491 1491 1491 1490 1490 1490
1497 1501 1504 1506 1505 1501 1488 1487 1490 1490 1485 1483 1483 1483 1483 1483 1483 1483 1482 1482 1482 1482 1482 1482 1482 1483 1484 1485 1485 1485 1486 1486 1487 1487 1488 1488 1488 1489 1488 1488 1488 1488 1487 1487
1494 1494 1495 1496 1495 1488 1486 1486 1486 1485 1483 1482 1482 1481 1481 1481 1481 1481 1481 1481 1481 1480 1480 1480 1480 1481 1481 1482 1483 1483 1484 1484 1485 1485 1485 1486 1486 1486 1486 1485 1485 1485 1484 1484
1491 1490 1491 1491 1487 1486 1485 1484 1483 1483 1482 1481 1481 1480 1480 1479 1479 1479 1479 1479 1479 1478 1478 1478 1479 1479 1479 1480 1481 1481 1482 1482 1482 1482 1482 1483 1483 1483 1483 1482 1482 1482 1481 1481
1489 1489 1490 1490 1486 1484 1482 1482 1482 1481 1480 1480 1479 1479 1479 1478 1478 1478 1477 1477 1477 1476 1476 1477 1477 1477 1478 1478 1479 1479 1479 1480 1480 1480 1480 1480 1480 1480 1480 1479 1479 1479 1479 1479
1485 1486 1488 1486 1482 1483 1481 1480 1480 1479 1478 1478 1477 1477 1477 1477 1476 1476 1476 1476 1475 1475 1475 1475 1476 1476 1476 1476 1477 1477 1477 1478 1478 1477 1477 1477 1477 1477 1477 1476 1476 1476 1476 1476